Mazar-I-Sharif, Afghanistan

12:49 AM +0430 on November 21, 2017 (GMT +0430)
Mazar

Weather History for OAMS - March, 2014

Change the Weather History Date:

Sunday, March 30, 2014

  Actual Average Record
Temperature  
Mean Temperature 64 °F -  
Max Temperature 80 °F 76 °F - ()
Min Temperature 48 °F 52 °F - ()
Degree Days  
Heating Degree Days 1    
Growing Degree Days 14 (Base 50)    
Moisture  
Dew Point 42 °F    
Average Humidity 41    
Maximum Humidity 77    
Minimum Humidity 13    
Precipitation  
Precipitation 0.00 in 0.04 in - ()
Sea Level Pressure  
Sea Level Pressure 29.94 in    
Wind  
Wind Speed 7 mph ()    
Max Wind Speed 23 mph    
Max Gust Speed -    
Visibility 6.0 miles    
Events      
T = Trace of Precipitation, MM = Missing Value Source: Averaged Metar Reports

Daily Weather History Graph

Daily Weather History Graph

Search for Another Location

Airport or City:

Trip Planner

Search our weather history database for the weather conditions in past years. The results will help you decide how hot, cold, wet, or windy it might be!

Date:

Astronomy

Mar. 30, 2014 Rise Set
Actual Time 5:50 AM +0430 6:21 PM +0430
Civil Twilight 5:24 AM +0430 6:47 PM +0430
Nautical Twilight 4:54 AM +0430 7:18 PM +0430
Astronomical Twilight 4:23 AM +0430 7:49 PM +0430
Moon 5:19 AM +0430 (3/30) 6:04 PM +0430 (3/30)
Length of Visible Light 13h 22m
Length of Day
12h 30m
Waning Crescent, 0% of the Moon is Illuminated
Mar 30
Waning Crescent
Mar 30
New
Apr 7
First Quarter
Apr 15
Full
Apr 22
Last Quarter

Hourly Weather History & Observations

Time (+0430) Temp. Dew Point Humidity Pressure Visibility Wind Dir Wind Speed Gust Speed Precip Events Conditions
12:20 AM 62.6 °F 41.0 °F 45% 30.01 in 6.2 mi ESE 5.8 mph - N/A   Unknown
12:30 AM 62 °F 40 °F 33% 29.99 in 7 mi ESE 6.7 mph - -  
1:20 AM 57.2 °F 44.6 °F 63% 29.98 in 6.2 mi ESE 2.3 mph - N/A   Unknown
1:30 AM 57 °F 44 °F 52% 29.97 in 7 mi ESE 2.2 mph - -  
2:20 AM 55.4 °F 42.8 °F 63% 29.98 in 6.2 mi ESE 2.3 mph - N/A   Unknown
2:30 AM 55 °F 43 °F 53% 29.98 in 7 mi ESE 2.2 mph - -  
3:20 AM 53.6 °F 42.8 °F 67% 29.98 in 6.2 mi West 2.3 mph - N/A   Partly Cloudy
3:30 AM 54 °F 42 °F 55% 29.98 in 7 mi West 2.2 mph - -   Clear
4:20 AM 53.6 °F 42.8 °F 67% 29.98 in 6.2 mi SSE 4.6 mph - N/A   Unknown
4:30 AM 54 °F 44 °F 58% 29.83 in 9 mi West 6.7 mph - -   Scattered Clouds
5:20 AM 50.0 °F 42.8 °F 76% 29.98 in 6.2 mi West 2.3 mph - N/A   Partly Cloudy
5:30 AM 50 °F 43 °F 71% 30.01 in 7 mi West 2.2 mph - -   Clear
6:20 AM 50.0 °F 42.8 °F 76% 30.01 in 3.7 mi North 3.5 mph - N/A   Partly Cloudy
6:30 AM 50 °F 43 °F 69% 30.02 in 4 mi North 4.5 mph - -   Smoke
7:20 AM 53.6 °F 46.4 °F 77% 30.01 in 3.1 mi Variable 2.3 mph - N/A   Smoke
7:30 AM 54 °F 46 °F 65% 30.03 in 3 mi 2.2 mph - -   Smoke
7:37 AM 55.4 °F 46.4 °F 72% 30.04 in 2.2 mi WNW 3.5 mph - N/A   Smoke
8:00 AM 57.2 °F 46.4 °F 67% 30.04 in 2.8 mi West 5.8 mph - N/A   Smoke
8:20 AM 57.2 °F 44.6 °F 63% 30.04 in 3.1 mi West 3.5 mph - N/A   Smoke
8:30 AM 58 °F 45 °F 52% 30.03 in 3 mi West 4.5 mph - -   Smoke
9:20 AM 64.4 °F 46.4 °F 52% 30.04 in 3.7 mi Variable 1.2 mph - N/A   Partly Cloudy
9:30 AM 64 °F 46 °F 42% 30.01 in 4 mi 2.2 mph - -   Smoke
10:20 AM 68.0 °F 44.6 °F 43% 30.01 in 4.3 mi West 4.6 mph - N/A   Partly Cloudy
10:30 AM 68 °F 45 °F 33% 29.99 in 4 mi West 4.5 mph - -   Smoke
11:20 AM 75.2 °F 44.6 °F 34% 29.98 in 6.2 mi East 20.7 mph - N/A   Partly Cloudy
11:30 AM 75 °F 44 °F 23% 29.94 in 6 mi East 20.1 mph - -   Clear
12:20 PM 78.8 °F 42.8 °F 28% 29.95 in 6.2 mi ENE 21.9 mph - N/A   Partly Cloudy
12:30 PM 78 °F 42 °F 18% 29.91 in 6 mi ENE 22.4 mph - -   Clear
1:20 PM 78.8 °F 41.0 °F 26% 29.95 in 6.2 mi ENE 23.0 mph - N/A   Partly Cloudy
1:30 PM 80 °F 42 °F 16% 29.88 in 6 mi ENE 22.4 mph - -   Clear
2:20 PM 78.8 °F 41.0 °F 26% 29.92 in 6.2 mi East 23.0 mph - N/A   Partly Cloudy
2:30 PM 79 °F 41 °F 16% 29.85 in 6 mi East 22.4 mph - -   Clear
3:20 PM 78.8 °F 37.4 °F 23% 29.89 in 6.2 mi East 23.0 mph - N/A   Clear
3:30 PM 79 °F 38 °F 14% 29.83 in 6 mi East 22.4 mph - -  
4:20 PM 78.8 °F 35.6 °F 21% 29.89 in 6.2 mi East 23.0 mph - N/A   Clear
4:30 PM 78 °F 36 °F 13% 29.82 in 6 mi East 22.4 mph - -  
6:20 PM 73.4 °F 39.2 °F 29% 29.86 in 6.2 mi East 18.4 mph - N/A   Partly Cloudy
6:30 PM 74 °F 39 °F 18% 29.83 in 9 mi East 17.9 mph - -   Clear
7:20 PM 71.6 °F 39.2 °F 31% 29.86 in 6.2 mi East 16.1 mph - N/A   Partly Cloudy
7:30 PM 72 °F 39 °F 20% 29.83 in 9 mi East 15.7 mph - -   Clear
8:20 PM 69.8 °F 39.2 °F 33% 29.89 in 6.2 mi East 10.4 mph - N/A   Partly Cloudy
8:30 PM 70 °F 39 °F 22% 29.84 in 9 mi East 11.2 mph - -   Clear
9:20 PM 71.6 °F 35.6 °F 27% 29.89 in 6.2 mi East 10.4 mph - N/A   Scattered Clouds
9:30 PM 71 °F 36 °F 17% 29.84 in 9 mi East 11.2 mph - -   Clear
10:20 PM 68.0 °F 35.6 °F 30% 29.89 in 6.2 mi ESE 6.9 mph - N/A   Scattered Clouds
10:30 PM 69 °F 36 °F 19% 29.84 in 9 mi ESE 6.7 mph - -   Clear
11:20 PM 68.0 °F 37.4 °F 33% 29.86 in 6.2 mi ESE 4.6 mph - N/A   Scattered Clouds
11:30 PM 68 °F 37 °F 21% 29.83 in 9 mi ESE 4.5 mph - -   Clear